Temp
18 18 19 19 20 20 20 21 21 21 22 23 24 24 25 26 28 29 27 33 33 33 32 33 32 32 31 29 30 31 27 27 28 28 30 28 30 29 29 29 30 30 27 26 24
17 17 18 19 19 20 20 21 21 21 22 23 24 24 24 25 26 25 34 34 34 33 33 31 31 30 30 32 31 30 27 29 30 29 29 29 29 29 28 29 29 28 26 24 22
17 17 17 18 19 20 20 20 20 21 22 23 23 24 24 25 23 28 33 34 35 34 32 32 31 31 31 31 33 32 31 31 31 31 30 29 29 29 27 28 28 27 24 24 23
16 16 17 17 18 19 20 20 21 21 22 23 23 24 24 24 28 33 33 33 34 33 32 32 31 31 30 30 33 33 34 33 30 30 30 29 29 28 29 29 29 28 25 25 24
16 16 17 17 18 19 20 21 21 21 22 22 23 23 23 23 24 33 32 32 32 32 32 32 31 31 31 30 32 34 35 33 30 30 30 30 29 29 29 30 30 29 27 25 25
16 16 17 17 18 19 20 21 22 22 22 22 22 23 22 23 31 31 31 32 32 32 32 32 32 32 31 31 32 34 33 31 30 30 30 29 28 29 29 30 30 29 28 26 26
16 16 17 17 18 19 20 21 22 23 23 22 22 21 20 23 30 30 31 32 32 31 31 33 33 33 32 31 33 34 31 30 30 30 30 30 29 28 29 29 29 29 28 28 26
15 16 17 17 18 19 21 22 23 24 23 22 22 20 20 29 29 31 32 32 33 33 32 34 33 31 32 32 32 32 31 30 31 30 30 30 29 28 27 28 27 27 27 29 27
14 16 17 17 18 20 21 23 23 23 22 22 21 21 22 29 29 33 33 32 33 34 34 34 33 31 30 30 29 28 30 31 31 31 31 29 28 28 27 26 25 26 26 27 27
14 15 16 17 19 20 23 23 22 22 21 21 20 22 25 29 30 31 33 33 32 31 31 31 26 27 26 27 28 30 29 31 32 31 31 29 28 28 28 25 26 25 25 26 26
14 15 16 17 19 20 23 23 20 21 22 24 24 24 25 29 30 31 32 32 31 29 29 28 28 28 29 29 30 31 30 30 31 33 31 29 30 27 27 25 26 25 24 24 25
13 14 16 17 19 21 21 19 22 22 18 22 23 23 26 28 27 27 31 30 29 28 29 26 26 28 29 30 30 30 30 30 31 33 33 29 29 28 26 26 27 26 25 24 26
12 13 15 17 19 19 18 21 21 20 19 22 23 24 26 26 25 26 29 28 29 28 28 26 28 30 30 31 31 30 30 30 31 32 33 31 29 27 28 28 27 27 26 25 25
12 13 14 17 19 18 19 22 22 21 19 24 25 26 26 27 28 29 30 29 29 28 26 27 29 31 30 30 29 29 31 32 33 30 29 30 29 27 26 26 26 27 25 25 24
12 12 12 14 14 14 22 22 23 23 24 29 28 29 26 28 30 31 30 30 28 29 27 28 31 30 29 30 31 30 31 31 32 30 29 30 28 27 24 24 25 26 26 25 25
12 12 12 14 13 20 21 22 23 21 24 29 30 28 28 29 29 30 31 30 29 29 28 28 30 30 30 32 31 32 33 29 28 27 27 29 28 27 25 25 26 26 26 27 25
12 14 13 12 16 20 21 20 20 21 27 29 30 29 28 28 30 30 30 29 27 27 26 27 29 30 32 31 31 31 27 26 28 28 27 26 27 28 29 28 29 28 27 27 26
13 17 18 17 19 19 20 20 22 25 25 28 28 28 29 28 29 29 27 26 26 27 23 26 27 29 31 30 30 28 26 25 28 26 27 26 29 31 31 30 30 29 29 28 26
15 16 15 19 19 18 18 19 21 22 26 26 26 28 29 30 30 29 27 25 26 24 27 25 27 30 32 33 31 30 28 27 24 24 25 26 28 30 29 29 28 27 27 27 27
12 11 14 19 20 19 18 18 21 23 26 26 26 27 27 29 30 27 27 28 29 26 27 28 27 29 32 31 32 30 28 28 24 27 28 26 28 28 30 28 27 27 26 25 25
12 14 19 20 21 17 18 17 21 24 26 26 26 26 25 28 29 27 28 29 29 28 26 25 26 29 32 31 31 29 28 25 25 24 26 26 26 26 28 28 27 27 26 26 26
10 18 20 19 18 14 17 20 23 25 26 25 25 25 26 28 28 29 29 30 29 26 27 25 23 26 28 29 30 30 29 26 25 27 23 24 26 29 27 27 27 26 27 26 25
11 11 20 19 19 18 19 22 24 24 25 26 27 27 28 29 29 29 29 31 29 29 28 26 25 25 26 27 29 31 30 27 24 24 25 26 27 26 26 26 26 26 25 26 25
12 17 16 17 16 20 21 21 23 26 25 26 26 26 27 27 27 29 28 30 29 27 25 27 22 26 28 27 28 30 31 29 26 25 26 26 29 27 26 25 25 26 26 26 24
11 14 15 17 18 19 21 22 23 24 26 25 25 26 25 27 27 28 27 27 28 25 26 25 26 26 26 27 27 31 31 28 30 28 28 29 26 25 24 24 26 24 24 24 23
12 13 13 14 15 20 19 23 23 24 25 24 24 25 25 26 27 28 27 26 28 26 26 22 25 26 29 27 28 31 31 30 30 29 30 29 28 26 24 24 25 24 25 25 24
13 13 12 14 16 19 19 21 23 22 24 25 24 24 24 25 24 24 24 21 26 26 24 24 23 23 26 25 28 28 29 31 31 30 30 27 29 25 24 26 25 24 25 26 26
Height
809 806 802 799 796 792 788 786 783 779 776 772 769 767 764 760 756 752 747 744 744 745 746 746 747 744 741 746 744 746 784 798 784 783 770 762 760 758 758 763 757 758 764 773 783
810 806 803 799 795 792 788 785 782 778 774 770 768 765 763 760 755 748 740 741 742 743 745 743 742 741 747 746 746 759 785 776 755 755 762 758 759 761 764 763 765 767 768 776 784
810 806 802 799 795 791 787 784 781 777 772 769 766 764 762 760 758 742 738 738 739 741 745 743 743 743 752 749 748 752 767 749 747 748 749 755 759 755 764 774 763 770 773 778 782
809 806 802 798 794 790 786 782 779 775 771 768 765 764 762 761 775 738 739 739 739 741 743 743 744 751 759 763 744 758 738 737 745 747 752 758 754 762 757 755 751 757 765 772 781
808 804 801 797 792 788 784 780 776 773 769 767 765 764 763 764 754 738 739 740 741 741 742 743 749 753 765 758 746 749 742 740 744 750 753 754 757 759 756 750 752 758 765 771 777
807 803 799 794 790 786 782 778 774 770 767 766 764 764 764 772 740 738 738 738 740 741 741 743 746 745 754 754 757 743 744 745 752 751 752 763 763 758 755 751 756 759 764 770 774
806 802 798 793 788 783 779 775 771 767 764 763 763 763 764 751 738 737 737 737 739 740 742 741 741 746 746 755 741 740 761 758 762 755 759 755 770 767 755 755 760 763 763 766 772
804 800 796 791 786 780 775 770 766 762 761 761 762 762 761 738 737 735 735 736 737 738 739 739 739 742 747 743 748 756 759 785 762 758 756 759 784 763 758 760 766 765 765 764 768
802 798 793 788 783 777 770 766 761 759 759 760 761 761 758 737 735 732 733 735 735 736 737 737 738 748 750 768 782 777 792 781 776 757 759 768 779 759 759 765 770 767 765 764 766
800 795 790 785 780 773 767 762 760 760 760 761 761 766 744 740 734 733 732 734 736 737 740 741 754 769 777 784 813 796 794 781 780 767 763 773 772 761 760 767 767 767 766 767 765
799 794 789 783 777 771 764 761 765 765 760 757 754 751 743 737 733 731 732 733 736 746 765 757 774 787 777 773 774 776 783 788 768 752 764 772 765 763 763 768 767 768 767 768 765
797 792 787 781 776 770 769 771 773 778 774 745 742 743 739 740 747 734 732 743 749 767 760 775 786 767 762 765 772 777 785 785 762 746 750 773 769 761 764 763 764 765 766 768 765
795 790 784 778 772 771 770 771 771 770 775 747 738 738 737 739 747 740 732 742 753 765 769 784 768 754 762 768 777 779 785 781 777 754 751 763 778 772 763 763 762 759 763 764 765
793 789 784 777 775 772 767 767 765 763 789 759 743 732 731 733 744 726 728 738 751 766 771 772 755 758 765 773 776 791 763 765 763 775 799 769 809 780 774 771 767 761 761 759 757
791 787 784 782 779 774 768 764 760 762 807 741 737 723 727 738 733 729 726 734 758 758 767 774 758 762 771 767 762 774 756 763 761 777 787 782 803 783 779 781 769 763 757 755 758
788 785 781 780 777 768 766 762 761 797 801 748 732 739 742 737 736 728 731 729 738 754 758 762 746 752 757 749 753 749 757 770 779 787 820 790 797 792 782 768 764 757 755 750 756
783 779 778 777 770 767 766 763 799 809 755 755 748 740 744 747 743 741 746 755 770 784 785 768 761 747 743 759 752 756 785 819 816 816 824 796 801 776 751 747 738 743 745 748 755
776 772 767 765 766 768 767 780 803 776 770 748 745 745 751 748 747 745 755 767 756 763 791 790 791 755 742 753 763 769 781 817 829 829 816 792 798 768 737 732 725 727 730 739 749
771 765 761 757 759 767 775 802 794 782 761 761 753 756 755 745 746 749 758 765 752 756 778 789 779 741 736 734 745 762 781 766 809 813 816 804 777 749 739 738 733 735 736 738 739
770 766 759 757 760 765 784 798 784 766 759 758 770 759 769 755 750 758 758 740 742 740 739 756 781 749 737 733 736 749 750 786 800 820 820 809 790 784 750 748 740 738 737 736 740
772 769 759 760 762 773 796 797 776 760 756 763 764 766 766 756 750 758 754 736 727 733 736 755 768 760 738 748 752 759 768 777 782 797 814 821 801 750 746 746 738 731 726 727 726
775 773 763 765 777 788 790 779 765 759 753 757 756 760 763 751 752 748 749 737 719 726 748 744 770 780 761 735 732 739 752 763 792 794 801 803 789 732 737 734 735 727 720 722 729
785 782 768 769 786 787 778 770 763 761 756 754 752 745 741 745 754 745 739 719 717 723 733 738 766 785 775 757 737 742 741 749 764 774 792 796 785 740 737 733 729 725 722 726 730
787 781 774 771 776 775 777 773 767 749 750 746 745 740 743 746 744 742 740 725 720 724 721 723 762 762 775 768 748 750 741 742 757 785 779 774 752 746 741 738 733 729 726 729 732
789 787 785 786 780 776 772 770 768 765 748 745 746 746 751 753 747 745 737 737 724 728 724 733 757 754 749 742 744 736 737 745 746 752 763 749 756 741 736 732 727 730 730 732 734
791 791 786 786 782 775 775 768 768 761 754 756 756 743 740 748 743 744 738 739 736 731 732 738 757 747 747 742 741 736 729 733 734 736 737 739 741 719 724 727 732 731 730 730 731
790 789 790 786 783 779 779 773 765 761 750 745 748 748 745 741 736 731 728 736 731 735 741 744 754 763 767 756 745 759 738 728 724 722 726 750 724 724 731 722 718 724 725 724 723
Wind_Speed
20 20 21 22 22 22 23 24 24 28 24 20 18 17 18 21 22 19 7 10 5 10 14 13 4 4 3 2 5 3 4 4 5 6 4 3 4 3 2 4 1 2 6 19 26
21 22 22 22 22 23 23 24 25 29 26 20 16 15 16 19 20 16 22 20 17 16 10 10 7 8 2 2 2 4 5 9 8 6 5 7 3 6 5 6 2 10 19 29 30
22 23 24 23 23 24 24 24 26 27 28 20 15 14 14 14 5 8 6 8 14 17 10 8 5 3 4 3 1 3 5 7 6 4 6 6 5 4 10 2 7 20 19 21 26
22 23 24 25 25 25 25 26 26 26 27 18 14 12 12 4 4 2 5 5 1 3 4 3 4 4 5 6 3 4 2 6 6 7 4 5 7 5 5 7 16 22 24 20 20
23 24 25 26 26 26 26 27 26 25 25 15 12 9 3 3 9 9 6 8 6 1 3 1 3 2 4 6 10 3 5 2 8 7 6 4 1 4 2 9 15 21 21 21 19
23 25 26 28 28 28 27 27 26 25 21 12 9 6 1 3 6 8 7 14 12 4 1 3 0 3 5 4 1 6 6 8 7 8 7 6 2 2 5 11 16 19 19 18 19
24 25 27 28 29 30 29 28 26 25 14 8 4 2 0 14 3 9 14 9 8 7 3 3 4 1 4 7 4 6 5 7 1 4 4 5 5 4 2 13 17 13 12 15 16
25 26 27 29 31 30 30 29 29 19 7 4 1 1 7 6 12 13 11 10 6 7 9 13 5 4 3 3 7 6 5 2 6 7 6 3 7 5 1 8 11 11 9 10 9
26 26 28 30 31 32 31 29 19 4 2 1 2 2 9 13 6 8 10 6 4 5 5 7 1 1 5 3 5 6 3 5 1 10 3 5 6 7 7 3 7 7 8 7 6
27 27 28 31 31 31 31 22 5 3 2 1 1 2 7 1 6 12 6 6 2 3 6 5 5 3 4 5 2 4 6 7 2 9 8 9 13 4 13 6 9 8 7 7 8
28 27 29 32 28 32 24 4 5 3 1 6 7 5 8 11 9 4 4 5 4 7 2 4 4 4 8 5 5 3 3 5 11 8 10 15 15 9 12 5 8 7 7 7 8
28 28 30 32 33 19 8 4 5 2 9 10 14 8 10 3 5 5 5 5 4 4 2 5 4 8 2 1 3 4 4 9 11 2 3 8 10 2 11 8 5 9 10 7 4
28 28 31 31 20 3 17 1 12 12 3 7 6 5 5 10 7 7 8 5 4 4 3 5 6 3 3 2 4 3 4 5 8 6 1 5 6 3 3 3 6 7 4 5 8
28 28 30 34 2 20 8 14 24 1 4 6 4 6 6 6 4 9 9 6 2 8 7 4 6 3 1 4 6 6 5 9 11 4 1 6 4 4 4 8 7 11 7 9 8
28 27 29 26 16 8 8 22 15 4 3 0 2 6 3 9 2 1 6 6 8 6 7 7 2 4 5 9 5 11 4 10 7 3 5 3 1 5 6 8 12 10 11 10 5
28 27 29 13 16 15 13 21 2 5 4 4 3 4 5 1 3 4 4 5 4 4 3 7 2 5 7 4 6 6 3 5 3 4 2 5 2 5 6 6 8 10 10 12 6
29 27 28 19 5 6 19 4 5 3 6 6 4 2 2 4 2 4 4 3 5 3 5 5 7 4 4 4 3 4 6 3 3 3 6 1 2 8 4 8 9 18 16 12 6
32 28 20 20 12 4 5 5 2 2 5 4 4 4 5 4 4 3 6 5 4 4 3 5 6 7 4 8 8 7 9 6 6 5 5 3 5 5 2 9 9 14 20 16 11
30 16 14 5 9 10 4 3 6 5 4 8 8 5 3 1 3 3 5 5 9 9 8 5 5 1 3 4 7 3 3 6 7 3 3 3 6 9 6 2 7 6 9 15 15
18 10 8 1 19 7 5 4 4 4 5 3 3 3 3 4 2 4 6 5 6 11 6 4 3 5 2 3 1 5 5 3 3 4 3 4 4 6 2 5 7 8 11 9 3
5 4 5 15 11 5 3 6 5 6 3 3 1 3 6 4 3 3 4 6 6 1 7 6 4 5 3 3 5 2 1 4 5 5 6 3 6 8 6 7 9 8 9 14 16
6 3 1 18 4 1 3 5 3 5 3 7 4 8 6 5 4 3 3 5 9 8 10 8 5 5 11 5 1 2 6 7 5 5 2 4 6 3 8 7 8 12 15 10 11
3 3 6 7 1 1 4 4 4 4 4 3 4 4 4 2 3 2 1 5 9 3 9 9 2 2 10 7 4 3 4 4 4 4 5 6 6 3 3 5 8 12 9 10 10
2 2 3 2 0 3 3 6 4 4 5 5 7 4 2 4 3 2 2 3 6 6 7 5 4 8 10 8 4 4 4 3 7 4 4 6 9 6 7 8 8 5 3 7 9
1 1 2 2 2 3 2 3 6 5 2 6 6 5 2 4 2 3 1 4 3 6 4 4 2 1 6 6 6 6 5 4 3 5 5 5 9 7 12 13 14 6 8 8 9
2 3 4 2 3 4 2 1 3 6 2 5 4 15 4 4 5 6 4 3 2 6 3 4 1 2 3 5 5 3 5 5 6 5 5 2 8 8 6 7 5 8 12 14 12
4 3 2 3 4 1 1 4 4 7 3 4 5 5 6 4 8 6 2 3 3 1 1 3 3 3 4 5 1 3 7 5 5 3 5 6 8 4 4 14 16 15 16 19 18
Wind_Direction
4 2 360 358 357 355 353 352 350 351 343 335 330 328 327 322 316 310 261 251 265 293 321 333 191 278 292 218 183 155 90 222 253 158 223 196 162 78 111 145 123 163 126 146 146
1 360 357 354 352 350 348 347 347 348 343 335 331 329 330 329 324 288 269 276 273 279 319 349 337 357 34 286 247 131 148 215 214 163 183 176 120 156 158 156 126 86 104 129 138
360 358 355 352 349 345 342 341 343 344 342 336 331 331 331 333 332 254 326 284 251 258 280 306 319 20 8 355 270 221 225 189 190 134 159 137 137 159 123 28 171 144 141 144 150
355 353 351 348 345 341 336 335 338 340 338 335 330 330 328 337 252 279 16 23 336 237 272 309 17 19 6 338 285 307 275 148 132 145 125 156 119 142 234 187 158 149 151 152 162
347 348 346 344 341 338 334 331 332 335 333 331 329 331 338 12 252 266 307 348 348 240 244 354 21 52 2 297 329 139 354 31 107 124 102 113 229 118 170 149 153 151 150 164 168
343 343 341 339 338 335 331 328 327 327 325 322 327 328 37 266 262 293 305 291 289 308 278 121 268 226 260 282 330 299 296 118 132 162 138 143 176 226 233 165 157 164 162 166 175
340 339 338 336 334 332 328 324 323 321 312 311 320 323 188 238 223 286 304 302 298 267 296 276 264 107 314 317 310 288 99 76 221 171 103 136 336 223 10 164 163 173 182 166 181
338 336 334 332 331 330 325 322 321 313 284 292 307 125 247 266 299 272 274 292 280 280 246 281 287 204 177 301 355 358 84 171 197 179 168 113 256 255 173 166 168 175 194 194 179
338 335 333 331 330 330 323 324 324 322 218 238 118 137 266 313 275 274 249 240 305 321 304 289 54 119 28 40 8 3 348 2 127 215 106 194 246 223 182 274 177 210 207 204 219
338 335 332 330 331 330 323 327 17 87 117 67 229 348 284 42 313 313 241 219 85 10 11 46 53 73 47 68 250 323 332 329 177 217 212 202 266 211 194 215 193 214 219 231 216
336 335 333 331 334 327 331 359 12 356 356 240 239 248 290 306 308 296 242 113 69 63 163 353 87 194 221 176 191 258 266 298 292 193 170 203 242 222 189 215 204 215 246 228 226
335 334 332 333 334 328 4 55 90 339 296 245 248 248 257 22 318 302 161 130 117 197 113 19 218 218 249 210 253 264 330 301 275 195 154 161 239 193 190 222 205 209 232 228 223
334 335 334 334 334 34 326 278 327 335 241 292 211 219 205 147 206 265 142 131 139 176 145 162 234 119 167 275 276 285 223 274 253 332 21 110 327 168 228 212 195 225 178 217 217
334 336 336 338 25 330 306 335 333 174 37 277 258 264 143 144 265 221 164 140 69 189 162 224 260 204 233 253 142 276 181 246 268 71 356 76 267 246 189 214 218 216 201 219 213
331 332 333 340 306 305 320 333 340 118 346 36 216 160 173 150 241 324 169 52 169 189 105 244 237 187 192 229 152 244 192 251 245 66 83 302 107 268 129 217 222 222 231 214 203
328 327 327 330 301 282 323 335 31 43 264 350 119 173 121 295 325 22 81 60 156 147 3 225 252 158 211 270 199 272 254 41 35 108 51 234 155 276 198 203 200 222 228 233 189
325 318 312 292 251 304 323 2 46 144 322 352 17 196 105 178 231 143 181 147 174 122 268 319 267 244 184 308 352 131 69 331 355 12 231 100 276 242 211 206 196 200 209 223 156
323 314 303 270 260 283 324 55 155 264 270 325 312 270 166 153 252 181 144 211 227 121 108 176 327 171 167 180 208 194 160 161 210 207 257 33 231 253 153 228 218 189 198 199 192
324 319 301 294 214 192 79 82 209 217 333 326 335 64 355 203 126 121 208 231 207 168 178 155 268 261 165 158 147 242 169 187 105 20 72 248 297 305 104 345 248 158 166 201 205
327 327 290 192 144 135 75 232 251 244 339 331 27 57 12 291 160 157 203 219 228 182 154 218 293 227 255 151 259 161 168 76 359 130 217 281 259 233 270 222 239 167 194 212 160
340 2 344 149 137 55 151 231 268 257 327 331 295 281 242 289 203 206 229 282 205 183 138 142 123 254 90 173 225 40 342 29 121 128 163 211 258 218 182 203 194 193 195 179 190
339 38 144 153 60 63 165 202 276 280 169 254 212 210 224 259 247 248 232 208 310 159 174 202 152 232 224 255 244 192 225 161 139 220 171 163 268 44 173 168 210 178 191 157 91
359 284 169 253 118 280 291 283 243 270 270 252 270 235 215 244 319 192 270 256 332 160 175 171 255 311 332 352 18 211 181 147 134 93 187 144 262 50 195 183 195 182 194 129 125
339 51 326 80 213 116 2 293 292 270 259 221 249 267 280 196 241 254 292 303 345 346 32 105 129 167 218 206 163 276 190 171 127 116 189 221 238 210 205 188 186 212 122 146 152
8 342 175 298 344 326 193 293 302 333 254 12 345 343 254 270 166 223 252 316 299 328 54 90 161 326 224 210 179 194 241 173 153 178 162 242 203 212 195 189 184 158 142 170 173
79 21 351 281 307 334 41 7 324 322 270 324 2 319 314 184 227 235 184 204 254 342 60 359 138 76 270 238 254 283 267 170 207 198 246 229 285 204 145 112 143 180 178 190 202
359 2 107 293 341 63 203 308 318 325 294 325 318 314 10 5 298 266 105 133 181 330 21 77 106 70 289 350 302 2 247 235 228 181 153 184 232 122 159 183 185 179 191 197 206